Weather History for Mosby, MO

Change the Weather History Date:

Tuesday, June 17, 2014

  Actual Average (KMKC) Record (KMKC)
Temperature  
Mean Temperature 82 °F -  
Max Temperature 87 °F 81 °F 93 °F (1998)
Min Temperature 77 °F 63 °F 52 °F (1999)
Cooling Degree Days 17    
Growing Degree Days 32 (Base 50)    
Moisture  
Dew Point 70 °F    
Average Humidity 67    
Maximum Humidity 78    
Minimum Humidity 55    
Precipitation  
Precipitation 0.00 in - - ()
Sea Level Pressure  
Sea Level Pressure 29.84 in    
Wind  
Wind Speed 12 mph (South)    
Max Wind Speed 17 mph    
Max Gust Speed 25 mph    
Visibility 10 miles    
Events      
Averages and records for this station are not official NWS values.
T = Trace of Precipitation, MM = Missing Value Source: NWS Daily Summary

Daily Weather History Graph

Daily Weather History Graph

Search for Another Location

Airport:

Trip Planner

Search our weather history database for the weather conditions in past years. The results will help you decide how hot, cold, wet, or windy it might be!

Date:

Astronomy

Jun. 17, 2014 Rise Set
Actual Time 5:50 AM CDT 8:46 PM CDT
Civil Twilight 5:17 AM CDT 9:18 PM CDT
Nautical Twilight 4:36 AM CDT 9:59 PM CDT
Astronomical Twilight 3:49 AM CDT 10:46 PM CDT
Moon No Moon Rise 11:03 AM CDT (6/17)
Length of Visible Light 16h 01m
Length of Day
14h 56m
Waning Gibbous, 73% of the Moon is Illuminated
Jun 17
Waning Gibbous
Jun 19
Last Quarter
Jun 27
New
Jul 5
First Quarter
Jul 12
Full

Hourly Weather History & Observations

Time (CDT) Temp. Heat Index Dew Point Humidity Pressure Visibility Wind Dir Wind Speed Gust Speed Precip Events Conditions
12:15 AM 80.6 °F 82.7 °F 66.2 °F 61% 29.81 in 10.0 mi South 15.0 mph 23.0 mph N/A   Clear
12:35 AM 80.6 °F 82.7 °F 66.2 °F 61% 29.80 in 10.0 mi South 16.1 mph 25.3 mph N/A   Clear
12:55 AM 80.6 °F 82.7 °F 66.2 °F 61% 29.79 in 10.0 mi South 16.1 mph 25.3 mph N/A   Clear
1:15 AM 78.8 °F - 68.0 °F 69% 29.79 in 10.0 mi South 16.1 mph 23.0 mph N/A   Clear
1:35 AM 78.8 °F - 68.0 °F 69% 29.79 in 10.0 mi South 15.0 mph 25.3 mph N/A   Clear
1:55 AM 78.8 °F - 68.0 °F 69% 29.79 in 10.0 mi South 16.1 mph 25.3 mph N/A   Clear
2:15 AM 78.8 °F - 68.0 °F 69% 29.79 in 10.0 mi South 15.0 mph 21.9 mph N/A   Clear
2:35 AM 78.8 °F - 68.0 °F 69% 29.79 in 10.0 mi South 13.8 mph 24.2 mph N/A   Clear
2:55 AM 78.8 °F - 68.0 °F 69% 29.81 in 10.0 mi SSW 11.5 mph 18.4 mph N/A   Clear
3:15 AM 78.8 °F - 68.0 °F 69% 29.81 in 10.0 mi South 10.4 mph 17.3 mph N/A   Clear
3:35 AM 78.8 °F - 68.0 °F 69% 29.82 in 10.0 mi SSW 9.2 mph 17.3 mph N/A   Clear
3:55 AM 78.8 °F - 68.0 °F 69% 29.82 in 10.0 mi SSW 9.2 mph - N/A   Clear
4:15 AM 78.8 °F - 68.0 °F 69% 29.83 in 10.0 mi South 6.9 mph 18.4 mph N/A   Unknown
4:35 AM 78.8 °F - 68.0 °F 69% 29.83 in 10.0 mi South 8.1 mph - N/A   Clear
4:55 AM 78.8 °F - 68.0 °F 69% 29.83 in 10.0 mi South 8.1 mph - N/A   Clear
5:15 AM 78.8 °F - 68.0 °F 69% 29.83 in 10.0 mi South 9.2 mph - N/A   Clear
5:35 AM 78.8 °F - 68.0 °F 69% 29.84 in 10.0 mi South 5.8 mph - N/A   Clear
5:55 AM 77.0 °F - 68.0 °F 74% 29.85 in 10.0 mi South 8.1 mph - N/A   Clear
6:15 AM 77.0 °F - 68.0 °F 74% 29.85 in 10.0 mi South 9.2 mph - N/A   Clear
6:35 AM 77.0 °F - 68.0 °F 74% 29.85 in 10.0 mi South 8.1 mph - N/A   Clear
6:55 AM 77.0 °F - 69.8 °F 78% 29.90 in 10.0 mi NNE 10.4 mph - N/A   Scattered Clouds
7:55 AM 77.0 °F - 69.8 °F 78% 29.91 in 10.0 mi East 6.9 mph - N/A   Overcast
8:15 AM 77.0 °F - 69.8 °F 78% 29.91 in 10.0 mi East 5.8 mph - N/A   Overcast
8:35 AM 77.0 °F - 69.8 °F 78% 29.91 in 10.0 mi SE 4.6 mph - N/A   Overcast
8:55 AM 77.0 °F - 69.8 °F 78% 29.90 in 10.0 mi SE 6.9 mph - N/A   Overcast
9:15 AM 78.8 °F - 69.8 °F 74% 29.90 in 10.0 mi SE 8.1 mph - N/A   Overcast
9:55 AM 78.8 °F - 69.8 °F 74% 29.88 in 10.0 mi SE 13.8 mph 18.4 mph N/A   Unknown
10:15 AM 80.6 °F 84.6 °F 71.6 °F 74% 29.87 in 10.0 mi SE 9.2 mph 18.4 mph N/A   Unknown
10:35 AM 80.6 °F 84.6 °F 71.6 °F 74% 29.86 in 10.0 mi SSE 11.5 mph - N/A   Mostly Cloudy
10:55 AM 80.6 °F 83.9 °F 69.8 °F 70% 29.86 in 10.0 mi SSE 12.7 mph 17.3 mph N/A   Mostly Cloudy
11:15 AM 82.4 °F 86.3 °F 69.8 °F 66% 29.86 in 10.0 mi South 13.8 mph 21.9 mph N/A   Overcast
11:35 AM 82.4 °F 86.3 °F 69.8 °F 66% 29.85 in 10.0 mi South 15.0 mph 21.9 mph N/A   Overcast
11:55 AM 84.2 °F 89.6 °F 71.6 °F 66% 29.85 in 10.0 mi South 8.1 mph 21.9 mph N/A   Overcast
12:15 PM 86.0 °F 91.8 °F 71.6 °F 62% 29.85 in 10.0 mi South 13.8 mph 18.4 mph N/A   Overcast
12:35 PM 84.2 °F 89.6 °F 71.6 °F 66% 29.85 in 10.0 mi South 10.4 mph 18.4 mph N/A   Overcast
12:55 PM 86.0 °F 91.8 °F 71.6 °F 62% 29.85 in 10.0 mi South 11.5 mph 18.4 mph N/A   Unknown
1:15 PM 84.2 °F 88.4 °F 69.8 °F 62% 29.85 in 10.0 mi South 11.5 mph 21.9 mph N/A   Overcast
1:35 PM 86.0 °F 91.8 °F 71.6 °F 62% 29.85 in 10.0 mi South 10.4 mph 19.6 mph N/A   Unknown
1:55 PM 86.0 °F 90.4 °F 69.8 °F 58% 29.84 in 10.0 mi South 15.0 mph 24.2 mph N/A   Mostly Cloudy
2:15 PM 86.0 °F 91.8 °F 71.6 °F 62% 29.84 in 10.0 mi South 12.7 mph 21.9 mph N/A   Mostly Cloudy
2:35 PM 87.8 °F 93.8 °F 71.6 °F 58% 29.83 in 10.0 mi South 13.8 mph 23.0 mph N/A   Mostly Cloudy
2:55 PM 87.8 °F 92.6 °F 69.8 °F 55% 29.82 in 10.0 mi South 17.3 mph 24.2 mph N/A   Mostly Cloudy
3:15 PM 86.0 °F 91.8 °F 71.6 °F 62% 29.82 in 10.0 mi South 12.7 mph 18.4 mph N/A   Mostly Cloudy
3:35 PM 87.8 °F 93.8 °F 71.6 °F 58% 29.82 in 10.0 mi South 12.7 mph 20.7 mph N/A   Mostly Cloudy
3:55 PM 87.8 °F 93.8 °F 71.6 °F 58% 29.81 in 10.0 mi South 11.5 mph 20.7 mph N/A   Mostly Cloudy
4:15 PM 87.8 °F 93.8 °F 71.6 °F 58% 29.81 in 10.0 mi South 9.2 mph 23.0 mph N/A   Scattered Clouds
4:35 PM 87.8 °F 93.8 °F 71.6 °F 58% 29.81 in 10.0 mi South 12.7 mph 19.6 mph N/A   Mostly Cloudy
4:55 PM 87.8 °F 93.8 °F 71.6 °F 58% 29.81 in 10.0 mi South 13.8 mph 21.9 mph N/A   Mostly Cloudy
5:15 PM 87.8 °F 93.8 °F 71.6 °F 58% 29.82 in 10.0 mi South 11.5 mph 21.9 mph N/A   Mostly Cloudy
5:35 PM 86.0 °F 91.8 °F 71.6 °F 62% 29.82 in 10.0 mi South 9.2 mph 16.1 mph N/A   Overcast
5:55 PM 86.0 °F 91.8 °F 71.6 °F 62% 29.81 in 10.0 mi South 11.5 mph 19.6 mph N/A   Overcast
6:15 PM 86.0 °F 91.8 °F 71.6 °F 62% 29.82 in 10.0 mi South 10.4 mph 23.0 mph N/A   Overcast
6:35 PM 86.0 °F 90.4 °F 69.8 °F 58% 29.82 in 10.0 mi South 12.7 mph 24.2 mph N/A   Overcast
6:55 PM 86.0 °F 91.8 °F 71.6 °F 62% 29.82 in 10.0 mi South 9.2 mph 19.6 mph N/A   Overcast
7:15 PM 86.0 °F 91.8 °F 71.6 °F 62% 29.82 in 10.0 mi South 15.0 mph 19.6 mph N/A   Overcast
7:35 PM 84.2 °F 89.6 °F 71.6 °F 66% 29.82 in 10.0 mi South 12.7 mph 19.6 mph N/A   Mostly Cloudy
7:55 PM 84.2 °F 89.6 °F 71.6 °F 66% 29.82 in 10.0 mi South 15.0 mph 20.7 mph N/A   Scattered Clouds
8:15 PM 84.2 °F 88.4 °F 69.8 °F 62% 29.82 in 10.0 mi SSE 10.4 mph - N/A   Clear
8:35 PM 82.4 °F 86.3 °F 69.8 °F 66% 29.82 in 10.0 mi SSE 9.2 mph 17.3 mph N/A   Clear
8:55 PM 82.4 °F 86.3 °F 69.8 °F 66% 29.83 in 10.0 mi South 9.2 mph 18.4 mph N/A   Clear
9:15 PM 82.4 °F 86.3 °F 69.8 °F 66% 29.84 in 10.0 mi South 9.2 mph - N/A   Clear
9:35 PM 80.6 °F 84.6 °F 71.6 °F 74% 29.84 in 10.0 mi South 10.4 mph - N/A   Clear
9:55 PM 80.6 °F 84.6 °F 71.6 °F 74% 29.84 in 10.0 mi SSE 9.2 mph - N/A   Clear
10:15 PM 80.6 °F 84.6 °F 71.6 °F 74% 29.85 in 10.0 mi South 8.1 mph - N/A   Clear
10:35 PM 80.6 °F 84.6 °F 71.6 °F 74% 29.85 in 10.0 mi South 9.2 mph - N/A   Clear
10:55 PM 80.6 °F 84.6 °F 71.6 °F 74% 29.85 in 10.0 mi SSE 8.1 mph - N/A   Clear
11:15 PM 80.6 °F 84.6 °F 71.6 °F 74% 29.85 in 10.0 mi SSE 9.2 mph - N/A   Clear
11:35 PM 80.6 °F 84.6 °F 71.6 °F 74% 29.85 in 10.0 mi South 8.1 mph - N/A   Clear
11:55 PM 80.6 °F 83.9 °F 69.8 °F 70% 29.85 in 10.0 mi South 8.1 mph - N/A   Clear